Weather History for Koksijde, Belgium

Change the Weather History Date:

Thursday, October 11, 2012

  Actual Average Record
Temperature  
Mean Temperature 48 °F -  
Max Temperature 60 °F 52 °F 66 °F (2008)
Min Temperature 37 °F 45 °F 37 °F (2012)
Degree Days  
Heating Degree Days 16    
Moisture  
Dew Point 49 °F    
Average Humidity 91    
Maximum Humidity 100    
Minimum Humidity 67    
Precipitation  
Precipitation 0.35 in - - ()
Sea Level Pressure  
Sea Level Pressure 29.74 in    
Wind  
Wind Speed 6 mph ()    
Max Wind Speed 13 mph    
Max Gust Speed -    
Visibility 4.1 miles    
Events Rain    
Averages and records for this station are not official NWS values.
T = Trace of Precipitation, MM = Missing Value Source: Averaged Metar Reports

Daily Weather History Graph

Daily Weather History Graph

Search for Another Location

Airport:

Trip Planner

Search our weather history database for the weather conditions in past years. The results will help you decide how hot, cold, wet, or windy it might be!

Date:

Astronomy

Oct. 11, 2012 Rise Set
Actual Time 8:06 AM CEST 7:04 PM CEST
Civil Twilight 7:33 AM CEST 7:37 PM CEST
Nautical Twilight 6:55 AM CEST 8:15 PM CEST
Astronomical Twilight 6:16 AM CEST 8:54 PM CEST
Moon 3:01 AM CEST (10/11) 4:55 PM CEST (10/11)
Length of Visible Light 12h 04m
Length of Day
10h 57m
Waning Crescent, 20% of the Moon is Illuminated
Oct 11
Waning Crescent
Oct 15
New
Oct 22
First Quarter
Oct 29
Full
Nov 7
Last Quarter

Hourly Weather History & Observations

Time (CEST) Temp. Windchill Dew Point Humidity Pressure Visibility Wind Dir Wind Speed Gust Speed Precip Events Conditions
12:25 AM 41.0 °F 38.0 °F 39.2 °F 93% 29.95 in 5.6 mi East 4.6 mph - N/A   Partly Cloudy
12:55 AM 41.0 °F 38.0 °F 39.2 °F 93% 29.95 in 5.6 mi East 4.6 mph - N/A   Partly Cloudy
1:25 AM 41.0 °F - 37.4 °F 87% 29.92 in 5.6 mi East 2.3 mph - N/A   Partly Cloudy
2:00 AM 40 °F - 38 °F 88% 29.93 in 6 mi ENE 4.5 mph - -   Clear
2:25 AM 41.0 °F - 37.4 °F 87% 29.92 in 6.2 mi ENE 2.3 mph - N/A   Partly Cloudy
2:55 AM 41.0 °F - 37.4 °F 87% 29.89 in 6.2 mi Variable 2.3 mph - N/A   Partly Cloudy
3:25 AM 39.2 °F 37.0 °F 37.4 °F 93% 29.89 in 6.2 mi ENE 3.5 mph - N/A   Partly Cloudy
3:55 AM 37.4 °F 33.8 °F 37.4 °F 100% 29.86 in 5.6 mi East 4.6 mph - N/A   Partly Cloudy
4:25 AM 37.4 °F 34.9 °F 37.4 °F 100% 29.86 in 5.0 mi East 3.5 mph - N/A   Partly Cloudy
4:55 AM 37.4 °F 33.8 °F 37.4 °F 100% 29.86 in 5.0 mi East 4.6 mph - N/A   Partly Cloudy
5:00 AM 38 °F - 36 °F 92% 29.86 in 5 mi East 4.5 mph - -   Clear
5:25 AM 37.4 °F 32.8 °F 37.4 °F 100% 29.86 in 5.0 mi East 5.8 mph - N/A   Partly Cloudy
5:27 AM 37.4 °F 33.8 °F 37.4 °F 100% 29.86 in 4.3 mi East 4.6 mph - N/A   Partly Cloudy
5:55 AM 39.2 °F 35.9 °F 37.4 °F 93% 29.83 in 3.7 mi East 4.6 mph - N/A   Scattered Clouds
6:25 AM 39.2 °F 35.0 °F 39.2 °F 100% 29.83 in 3.7 mi East 5.8 mph - N/A   Scattered Clouds
6:55 AM 41.0 °F 39.0 °F 39.2 °F 93% 29.83 in 3.7 mi East 3.5 mph - N/A   Scattered Clouds
7:25 AM 41.0 °F 38.0 °F 41.0 °F 100% 29.80 in 3.7 mi ESE 4.6 mph - N/A   Scattered Clouds
8:00 AM 44 °F - 42 °F 90% 29.82 in 4 mi ESE 6.7 mph - -   Mostly Cloudy
8:25 AM 44.6 °F 41.4 °F 42.8 °F 93% 29.80 in 3.7 mi ESE 5.8 mph - N/A   Mostly Cloudy
8:55 AM 46.4 °F 43.5 °F 44.6 °F 93% 29.80 in 3.7 mi ESE 5.8 mph - N/A   Mostly Cloudy
9:25 AM 46.4 °F 43.5 °F 44.6 °F 93% 29.80 in 3.7 mi ESE 5.8 mph - N/A   Mostly Cloudy
9:55 AM 48.2 °F - 46.4 °F 93% 29.80 in 4.3 mi SE 8.1 mph - N/A   Mostly Cloudy
10:25 AM 50.0 °F - 46.4 °F 87% 29.80 in 4.3 mi SE 8.1 mph - N/A   Mostly Cloudy
10:55 AM 51.8 °F - 48.2 °F 88% 29.77 in 4.3 mi SE 10.4 mph - N/A   Mostly Cloudy
11:00 AM 52 °F - 48 °F 82% 29.80 in 4 mi SE 11.2 mph - -   Partly Cloudy
11:13 AM 53.6 °F - 48.2 °F 82% 29.77 in 5.0 mi ESE 11.5 mph - N/A   Mostly Cloudy
11:25 AM 53.6 °F - 48.2 °F 82% 29.77 in 5.0 mi SE 11.5 mph - N/A   Mostly Cloudy
11:55 AM 55.4 °F - 50.0 °F 82% 29.77 in 5.0 mi SE 11.5 mph - N/A   Mostly Cloudy
12:25 PM 57.2 °F - 50.0 °F 77% 29.74 in 5.0 mi SE 12.7 mph - N/A   Mostly Cloudy
12:55 PM 59.0 °F - 51.8 °F 77% 29.74 in 5.0 mi SE 12.7 mph - N/A   Mostly Cloudy
1:25 PM 59.0 °F - 51.8 °F 77% 29.74 in 5.0 mi SE 12.7 mph - N/A   Mostly Cloudy
1:55 PM 60.8 °F - 51.8 °F 72% 29.71 in 5.0 mi SE 12.7 mph - N/A   Mostly Cloudy
2:00 PM 61 °F - 53 °F 67% 29.73 in 5 mi SE 13.4 mph - -   Partly Cloudy
2:25 PM 59.0 °F - 51.8 °F 77% 29.71 in 5.0 mi SE 12.7 mph - N/A   Mostly Cloudy
2:50 PM 60.8 °F - 53.6 °F 77% 29.68 in 5.0 mi SE 11.5 mph - N/A   Mostly Cloudy
2:55 PM 60.8 °F - 53.6 °F 77% 29.68 in 5.6 mi SE 11.5 mph - N/A   Mostly Cloudy
3:25 PM 60.8 °F - 51.8 °F 72% 29.68 in 6.2 mi SE 11.5 mph - N/A   Mostly Cloudy
3:55 PM 59.0 °F - 51.8 °F 77% 29.68 in 6.2 mi SSE 10.4 mph - N/A   Mostly Cloudy
4:12 PM 59.0 °F - 53.6 °F 82% 29.68 in 3.7 mi SE 9.2 mph - N/A Rain Light Rain
4:16 PM 59.0 °F - 55.4 °F 88% 29.68 in - SE 9.2 mph - N/A Rain Light Rain
4:22 PM 59.0 °F - 55.4 °F 88% 29.68 in 1.9 mi SE 10.4 mph - N/A Rain Light Rain
4:25 PM 59.0 °F - 55.4 °F 88% 29.68 in 1.6 mi SE 10.4 mph - N/A Rain Rain
4:55 PM 57.2 °F - 57.2 °F 100% 29.65 in 1.9 mi SE 8.1 mph - N/A Rain Rain
5:00 PM 57 °F - 56 °F 97% 29.68 in 2 mi SE 6.7 mph - - Rain Rain
5:25 PM 57.2 °F - 57.2 °F 100% 29.65 in 1.6 mi SE 8.1 mph - N/A Rain Rain
5:55 PM 57.2 °F - 57.2 °F 100% 29.65 in 1.3 mi SE 6.9 mph - N/A Rain Rain
6:25 PM 57.2 °F - 57.2 °F 100% 29.65 in - ESE 9.2 mph - N/A Rain Rain
6:55 PM 57.2 °F - 57.2 °F 100% 29.65 in - ESE 8.1 mph - N/A Rain Rain
7:11 PM 57.2 °F - 55.4 °F 94% 29.62 in 2.5 mi ESE 8.1 mph - N/A Rain Rain
7:25 PM 57.2 °F - 55.4 °F 94% 29.62 in 2.8 mi ESE 6.9 mph - N/A   Mostly Cloudy
7:55 PM 57.2 °F - 55.4 °F 94% 29.62 in - SE 8.1 mph - N/A   Mostly Cloudy
8:00 PM 57 °F - 56 °F 96% 29.65 in 3 mi SE 6.7 mph - - Rain Light Rain
8:19 PM 57.2 °F - 55.4 °F 94% 29.62 in - SE 9.2 mph - N/A   Light Drizzle
8:25 PM 57.2 °F - 55.4 °F 94% 29.62 in - SE 9.2 mph - N/A   Light Drizzle
8:55 PM 57.2 °F - 57.2 °F 100% 29.62 in 1.4 mi SE 9.2 mph - N/A Rain Rain
9:25 PM 57.2 °F - 57.2 °F 100% 29.62 in 1.7 mi ESE 9.2 mph - N/A Rain Rain
9:55 PM 57.2 °F - 57.2 °F 100% 29.62 in 1.7 mi ESE 8.1 mph - N/A   Mostly Cloudy
10:25 PM 57.2 °F - 57.2 °F 100% 29.59 in 1.7 mi SE 8.1 mph - N/A   Mostly Cloudy
10:55 PM 57.2 °F - 57.2 °F 100% 29.59 in - SE 9.2 mph - N/A   Mostly Cloudy
11:00 PM 57 °F - 56 °F 97% 29.62 in 2 mi SE 8.9 mph - -   Mist
11:25 PM 57.2 °F - 57.2 °F 100% 29.59 in - SE 9.2 mph - N/A   Mostly Cloudy
11:45 PM 57.2 °F - 57.2 °F 100% 29.59 in - SSE 11.5 mph - N/A   Mostly Cloudy
11:55 PM 57.2 °F - 57.2 °F 100% 29.59 in - SSE 11.5 mph - N/A   Mostly Cloudy
11:59 PM 57.2 °F - 57.2 °F 100% 29.59 in - SSE 10.4 mph - N/A   Mostly Cloudy